Dewpoint
52 49 47 46 45 43 40 37 36 36 35 35 34 34 35 34 33 32 32 32 33 33
53 50 47 46 44 40 37 37 37 36 35 38 40 36 35 33 31 31 31 32 33 32
52 50 47 44 41 38 39 38 37 38 40 41 37 34 33 32 31 31 31 32 31 30
50 47 44 42 40 40 39 39 40 41 41 36 34 34 33 31 30 31 30 31 30 29
46 44 43 41 40 40 41 41 43 40 34 32 33 32 32 31 30 30 29 29 30 28
44 43 41 40 40 42 43 42 37 35 34 32 31 32 32 32 31 30 29 29 29 27
43 42 40 40 43 42 39 36 35 33 31 32 31 32 32 31 30 30 30 30 29 25
43 40 41 42 38 37 37 34 31 32 32 31 32 32 31 31 30 29 29 28 26 25
41 40 37 35 36 35 32 31 30 34 33 33 31 31 31 31 30 29 27 26 25 24
37 35 34 33 31 30 33 38 36 37 34 30 31 31 31 30 30 28 27 25 24 23
31 31 32 35 37 38 38 38 37 31 30 29 29 29 30 30 31 28 26 25 24 23
33 35 36 37 38 39 37 32 30 29 28 27 27 28 29 29 30 29 27 25 24 24
39 40 39 38 35 32 30 29 29 28 27 27 27 28 28 30 30 29 28 27 25 25
37 33 32 30 29 28 28 28 27 27 27 27 27 27 28 29 31 29 28 27 26 26
Wind_Speed
16 16 17 18 19 18 18 15 14 13 13 12 11 6 9 8 7 7 7 7 7 5
16 20 20 18 17 16 18 17 17 16 17 8 6 9 11 8 8 6 6 7 7 7
20 18 15 15 16 18 19 19 20 17 11 11 10 9 8 8 6 8 9 8 9 9
20 16 16 17 18 18 20 19 16 12 11 10 9 10 10 9 9 12 11 10 11 12
14 16 17 19 20 20 18 14 15 14 13 11 9 8 13 14 14 15 13 12 12 13
15 16 15 16 18 15 17 16 9 11 12 6 10 12 17 16 13 13 14 13 13 13
15 16 17 17 14 13 12 11 11 10 8 11 13 15 12 14 14 14 13 12 13 13
15 17 15 11 11 11 12 11 13 11 8 11 12 11 13 14 15 14 13 11 12 13
16 14 13 16 15 13 7 9 4 7 7 10 12 16 16 14 13 14 14 14 14 13
15 16 15 14 12 12 8 2 7 9 12 15 12 12 14 15 14 15 14 15 13 12
21 19 15 9 6 5 4 8 10 12 10 9 11 13 15 17 13 13 15 15 15 14
15 10 7 3 3 6 9 9 9 10 11 11 14 16 16 16 13 15 18 15 14 15
8 6 7 7 5 5 6 9 9 13 13 15 17 17 17 15 13 17 17 15 15 18
5 2 2 3 3 7 11 11 13 14 16 16 15 18 19 20 15 18 17 16 15 14
Wind_Direction
188 202 201 188 179 180 175 154 140 128 119 132 142 162 151 147 154 166 193 217 224 231
199 204 202 187 169 156 138 137 136 136 139 159 180 187 160 176 183 192 208 218 212 230
206 198 186 163 155 147 140 138 143 147 168 188 208 175 180 199 199 202 213 214 224 238
200 185 160 154 147 147 145 149 159 168 181 185 183 193 198 211 219 222 225 225 225 229
170 151 153 150 153 148 153 169 167 172 171 180 199 206 216 222 223 225 231 234 231 243
147 147 150 149 141 146 153 165 163 165 160 204 219 222 225 227 231 228 235 242 240 245
145 141 137 143 144 152 155 146 148 150 198 214 223 230 234 234 236 237 240 243 235 231
130 134 137 132 127 129 137 168 173 170 205 238 243 241 241 239 238 241 247 242 233 232
121 122 127 129 125 137 158 135 133 229 261 284 263 253 251 247 243 243 243 245 243 242
107 108 108 112 126 130 120 130 248 276 269 256 261 265 264 265 250 246 241 243 247 248
101 104 104 92 58 341 261 249 255 257 255 262 270 274 271 269 258 246 244 243 243 242
96 83 63 32 296 277 269 268 266 264 270 276 279 275 273 273 256 250 248 245 240 237
77 48 343 311 295 275 273 281 287 281 275 277 276 276 277 272 253 253 252 249 246 240
34 30 315 307 292 295 297 294 290 288 288 287 280 278 272 268 245 245 249 245 249 241